Evenes, Norway

1:54 PM CEST on April 19, 2018 (GMT +0200)
Evenes

Weather History for ENEV - January, 2018

Change the Weather History Date:

Saturday, January 13, 2018

  Actual Average Record
Temperature  
Mean Temperature 28 °F -  
Max Temperature 34 °F 27 °F 46 °F (2006)
Min Temperature 23 °F 18 °F 0 °F (2012)
Degree Days  
Heating Degree Days 36    
Moisture  
Dew Point 26 °F    
Average Humidity 79    
Maximum Humidity 87    
Minimum Humidity 70    
Precipitation  
Precipitation 0.00 in - - ()
Sea Level Pressure  
Sea Level Pressure 30.39 in    
Wind  
Wind Speed 5 mph ()    
Max Wind Speed 10 mph    
Max Gust Speed -    
Visibility 6.2 miles    
Events      
Averages and records for this station are not official NWS values.
T = Trace of Precipitation, MM = Missing Value Source: Averaged Metar Reports

Daily Weather History Graph

Daily Weather History Graph

Search for Another Location

Airport or City:

Astronomy

Jan. 13, 2018 Rise Set
Actual Time 10:53 AM CET 1:11 PM CET
Civil Twilight 8:57 AM CET 3:07 PM CET
Nautical Twilight 7:33 AM CET 4:31 PM CET
Astronomical Twilight 6:23 AM CET 5:41 PM CET
Moon 6:37 AM CET (1/13) 11:31 AM CET (1/13)
Length of Visible Light 6h 10m
Length of Day
2h 17m
Waning Crescent, 11% of the Moon is Illuminated
Jan 13
Waning Crescent
Jan 17
New
Jan 24
First Quarter
Jan 31
Full
Feb 7
Last Quarter

Hourly Weather History & Observations

Time (CET) Temp. Windchill Dew Point Humidity Pressure Visibility Wind Dir Wind Speed Gust Speed Precip Events Conditions
12:00 AM 37 °F - 33 °F 79% 30.53 in - South 4.5 mph - -  
12:20 AM 35.6 °F - 32.0 °F 87% 30.51 in 6.2 mi Variable 2.3 mph - N/A   Partly Cloudy
12:50 AM 35.6 °F 30.7 °F 32.0 °F 87% 30.51 in 6.2 mi SE 5.8 mph - N/A   Mostly Cloudy
1:00 AM 36 °F - 31 °F 77% 30.52 in - SSE 4.5 mph - -  
1:20 AM 35.6 °F - 30.2 °F 81% 30.51 in 6.2 mi Variable 2.3 mph - N/A   Mostly Cloudy
1:50 AM 35.6 °F 30.7 °F 32.0 °F 87% 30.51 in 6.2 mi SSE 5.8 mph - N/A   Partly Cloudy
2:00 AM 36 °F - 30 °F 73% 30.51 in - South 4.5 mph - -  
2:20 AM 35.6 °F 30.7 °F 30.2 °F 81% 30.48 in 6.2 mi SSE 5.8 mph - N/A   Unknown
2:50 AM 35.6 °F 31.7 °F 30.2 °F 81% 30.48 in 6.2 mi SSE 4.6 mph - N/A   Unknown
3:00 AM 35 °F - 29 °F 73% 30.50 in - SE 6.7 mph - -  
3:20 AM 33.8 °F 28.6 °F 30.2 °F 87% 30.48 in 6.2 mi South 5.8 mph - N/A   Unknown
3:50 AM 33.8 °F 25.8 °F 30.2 °F 87% 30.48 in 6.2 mi SE 10.4 mph - N/A   Unknown
4:00 AM 34 °F - 30 °F 80% 30.49 in - South 6.7 mph - -  
4:20 AM 33.8 °F 30.8 °F 30.2 °F 87% 30.48 in 6.2 mi South 3.5 mph - N/A   Unknown
4:50 AM 33.8 °F 27.0 °F 30.2 °F 87% 30.45 in 6.2 mi South 8.1 mph - N/A   Unknown
5:00 AM 33 °F - 29 °F 78% 30.47 in - South 6.7 mph - -  
5:20 AM 32.0 °F 26.4 °F 28.4 °F 87% 30.45 in 6.2 mi SW 5.8 mph - N/A   Unknown
5:50 AM 32.0 °F 24.8 °F 26.6 °F 80% 30.45 in 6.2 mi SSW 8.1 mph - N/A   Unknown
6:00 AM 33 °F - 28 °F 76% 30.45 in - SSW 6.7 mph - -  
6:20 AM 33.8 °F 27.7 °F 28.4 °F 81% 30.42 in - SW 6.9 mph - N/A   Clear
6:50 AM 32.0 °F 27.5 °F 28.4 °F 87% 30.42 in - South 4.6 mph - N/A   Clear
7:00 AM 33 °F - 28 °F 74% 30.44 in - SW 6.7 mph - -  
7:50 AM 33.8 °F 28.6 °F 28.4 °F 81% 30.42 in - SW 5.8 mph - N/A   Clear
8:00 AM 34 °F - 28 °F 72% 30.43 in - South 4.5 mph - -  
8:50 AM 33.8 °F 27.0 °F 30.2 °F 87% 30.39 in - SW 8.1 mph - N/A   Clear
9:50 AM 33.8 °F 26.4 °F 28.4 °F 81% 30.39 in - SW 9.2 mph - N/A   Clear
10:00 AM 33 °F - 28 °F 77% 30.41 in - SSW 6.7 mph - -  
10:50 AM 33.8 °F 27.0 °F 28.4 °F 81% 30.39 in - SW 8.1 mph - N/A   Clear
11:00 AM 34 °F - 28 °F 72% 30.41 in - SSW 8.9 mph - -  
11:20 AM 33.8 °F 27.0 °F 28.4 °F 81% 30.39 in - SSW 8.1 mph - N/A   Clear
11:50 AM 33.8 °F 26.4 °F 28.4 °F 81% 30.39 in - SW 9.2 mph - N/A   Clear
12:00 PM 34 °F - 28 °F 71% 30.40 in - SW 8.9 mph - -  
12:50 PM 33.8 °F 26.4 °F 28.4 °F 81% 30.39 in - SW 9.2 mph - N/A   Clear
1:00 PM 33 °F - 27 °F 71% 30.40 in - SW 8.9 mph - -  
1:50 PM 33.8 °F 27.7 °F 26.6 °F 75% 30.36 in - SW 6.9 mph - N/A   Clear
2:00 PM 33 °F - 27 °F 70% 30.38 in - SSW 6.7 mph - -  
2:50 PM 32.0 °F 25.6 °F 26.6 °F 80% 30.33 in 6.2 mi SW 6.9 mph - N/A   Unknown
3:00 PM 32 °F - 27 °F 76% 30.36 in - SW 6.7 mph - -  
3:20 PM 32.0 °F 24.2 °F 26.6 °F 80% 30.33 in 6.2 mi SW 9.2 mph - N/A   Unknown
3:50 PM 32.0 °F 25.6 °F 24.8 °F 75% 30.33 in 6.2 mi SW 6.9 mph - N/A   Unknown
4:00 PM 32 °F - 26 °F 70% 30.35 in - SW 8.9 mph - -  
4:20 PM 32.0 °F 24.8 °F 26.6 °F 80% 30.33 in 6.2 mi SW 8.1 mph - N/A   Unknown
4:50 PM 32.0 °F 26.4 °F 26.6 °F 80% 30.33 in 6.2 mi SW 5.8 mph - N/A   Unknown
5:00 PM 32 °F - 26 °F 72% 30.35 in - SW 4.5 mph - -  
5:20 PM 30.2 °F 25.4 °F 23.0 °F 75% 30.33 in 6.2 mi SSW 4.6 mph - N/A   Unknown
5:50 PM 28.4 °F 24.6 °F 23.0 °F 80% 30.33 in 6.2 mi South 3.5 mph - N/A   Unknown
6:00 PM 30 °F - 27 °F 82% 30.35 in - South 4.5 mph - -  
6:20 PM 30.2 °F 26.7 °F 26.6 °F 86% 30.33 in 6.2 mi South 3.5 mph - N/A   Unknown
6:50 PM 28.4 °F 24.6 °F 21.2 °F 74% 30.33 in 6.2 mi South 3.5 mph - N/A   Unknown
7:00 PM 28 °F - 22 °F 70% 30.34 in - South 4.5 mph - -  
7:20 PM 26.6 °F 21.2 °F 19.4 °F 74% 30.30 in 6.2 mi SSW 4.6 mph - N/A   Unknown
7:50 PM 24.8 °F 20.5 °F 19.4 °F 80% 30.30 in 6.2 mi SSW 3.5 mph - N/A   Unknown
8:00 PM 26 °F - 20 °F 71% 30.32 in - SSW 4.5 mph - -  
8:20 PM 24.8 °F 20.5 °F 17.6 °F 74% 30.30 in 6.2 mi South 3.5 mph - N/A   Unknown
8:50 PM 26.6 °F 22.6 °F 19.4 °F 74% 30.27 in 6.2 mi South 3.5 mph - N/A   Unknown
9:00 PM 24 °F - 18 °F 70% 30.30 in - South 4.5 mph - -  
9:20 PM 26.6 °F 22.6 °F 21.2 °F 80% 30.27 in 6.2 mi South 3.5 mph - N/A   Unknown
9:50 PM 26.6 °F 21.2 °F 21.2 °F 80% 30.27 in 6.2 mi SSW 4.6 mph - N/A   Unknown
10:00 PM 26 °F - 21 °F 74% 30.30 in - South 4.5 mph - -  
10:20 PM 24.8 °F 20.5 °F 17.6 °F 74% 30.27 in 6.2 mi South 3.5 mph - N/A   Unknown
10:50 PM 23.0 °F 17.0 °F 17.6 °F 80% 30.27 in 6.2 mi South 4.6 mph - N/A   Unknown
11:00 PM 23 °F - 18 °F 76% 30.28 in - South 4.5 mph - -  
11:20 PM 23.0 °F 17.0 °F 19.4 °F 86% 30.24 in 6.2 mi SSW 4.6 mph - N/A   Unknown
11:50 PM 23.0 °F 17.0 °F 17.6 °F 80% 30.24 in 6.2 mi South 4.6 mph - N/A   Unknown